Regional Weather Roundup
Issued by NWS

Home | Current Version | Previous Version | Text Only | Print | Product List | Glossary Off
Versions: 1 2 3 4 5 6 7 8 9 10 11 12 13 14 15 16 17 18 19 20 21 22 23 24 25 26 27 28 29 30 31 32 33 34 35 36 37 38 39 40 41 42 43 44 45 46 47 48 49 50

000
ASUS43 KDMX 300407
RWRIA

WEATHER ROUNDUP FOR IOWA
NATIONAL WEATHER SERVICE DES MOINES IA
1100 PM CDT WED JUL 29 2015

NOTE: "FAIR" INDICATES FEW OR NO CLOUDS BELOW 12,000 FEET WITH NO
SIGNIFICANT WEATHER AND/OR OBSTRUCTIONS TO VISIBILITY.

* - THESE STATIONS ARE NOT NWS STATIONS...THUS NOT UNDER NWS
QUALITY CONTROL.  THEY ALSO DO NOT REPORT WEATHER SUCH
AS PRECIPITATION OR FOG.

IAZ001>003-012>014-020>022-031>034-043>046-300500-
   NORTHWEST IOWA

CITY           SKY/WX    TMP DP  RH WIND       PRES   REMARKS
CARROLL *      CLEAR     66  63  88 SW8       30.13S
CHEROKEE *     CLEAR     66  63  88 CALM      30.12R
DENISON *      CLEAR     68  61  77 CALM      30.13R
LE MARS *      CLEAR     66  61  82 S5        30.12S
ORANGE CITY *  CLEAR     64  57  77 W7        30.11S
SHELDON *      CLEAR     63  61  94 SW3       30.10S
SIOUX CITY     CLEAR     67  62  84 SW7       30.13R
SPENCER        CLEAR     64  59  83 SW8       30.11R
STORM LAKE *   CLEAR     66  59  77 SW7       30.13S
$$

IAZ055>058-069>071-079>083-090>094-300500-
   SOUTHWEST IOWA

CITY           SKY/WX    TMP DP  RH WIND       PRES   REMARKS
ATLANTIC *     CLEAR     66  64  94 CALM      30.16R
AUDUBON *      CLEAR     66  61  82 CALM      30.16S
CLARINDA *     CLEAR     66  66 100 CALM      30.18S
COUNCIL BLFS * CLEAR     72  61  68 SW7       30.16S
CRESTON *      CLEAR     68  61  77 W5        30.17S
HARLAN  *      CLEAR     64  64 100 CALM      30.19R
LAMONI         CLEAR     71  62  73 W5        30.16S
RED OAK *      CLEAR     66  64  94 CALM      30.16S
SHENANDOAH *   CLEAR     66  66 100 CALM      30.17S
$$

IAZ047>049-059>061-072>074-084-300500-
   CENTRAL IOWA

CITY           SKY/WX    TMP DP  RH WIND       PRES   REMARKS
AMES           CLEAR     66  62  87 SW8       30.11R
ANKENY *       CLEAR     70  61  73 SW6       30.12S
CHARITON *     CLEAR     68  61  77 W6        30.15S
DES MOINES     CLEAR     71  61  70 SW7       30.13R
GRINNELL*      CLEAR     66  61  82 SW8       30.12S
KNOXVILLE *    CLEAR     68  61  77 SW6       30.12S
MARSHALLTOWN   CLEAR     65  61  87 SW6       30.10R
PELLA *        CLEAR     70  66  88 SW3       30.13S
PERRY *          N/A     64  63  94 SW7       30.13S
$$

IAZ004>006-015-016-023>025-035-036-300500-
   NORTH CENTRAL IOWA

CITY           SKY/WX    TMP DP  RH WIND       PRES   REMARKS
ALGONA *       CLEAR     66  61  82 SW7       30.10R
CLARION *      CLEAR     63  59  88 SW6       30.10S
ESTHERVILLE    CLEAR     62  59  90 SW6       30.09R
FORT DODGE *   CLEAR     66  61  82 SW5       30.12R
MASON CITY     CLEAR     68  59  73 W9        30.09R
FOREST CITY *  CLEAR     64  59  82 CALM      30.09R
IOWA FALLS *     N/A     66  61  82 SW8       30.11S
$$

IAZ007>011-017>019-026>030-037>042-050>054-066-300500-
   NORTHEAST IOWA

CITY           SKY/WX    TMP DP  RH WIND       PRES   REMARKS
CEDAR RAPIDS   CLEAR     66  62  87 SW7       30.08S
CHARLES CITY * CLEAR     66  63  88 W7        30.08S
CLINTON *      CLEAR     63  57  82 W9        30.09S
DECORAH *      CLEAR     68  59  73 VRB5      30.05R
DUBUQUE        CLEAR     65  59  81 W10       30.07R
MONTICELLO *   CLEAR     63  61  94 CALM      30.07S
OELWEIN *      CLEAR     64  61  88 W6        30.08S
WATERLOO       CLEAR     69  59  70 W9        30.07R
$$

IAZ064-065-067-068-078-300500-
   EAST CENTRAL IOWA

CITY           SKY/WX    TMP DP  RH WIND       PRES   REMARKS
DAVENPORT      CLEAR     67  61  81 W7        30.08S
IOWA CITY      CLEAR     67  61  81 W7        30.10S
MT. PLEASANT * CLEAR     68  61  77 W5        30.12S
MUSCATINE *    CLEAR     70  61  73 W8        30.09S
QUAD CITIES    CLEAR     67  61  81 CALM      30.08R
$$

IAZ062-063-075>077-085>089-095>099-300500-
   SOUTHEAST IOWA

CITY           SKY/WX    TMP DP  RH WIND       PRES   REMARKS
BURLINGTON     CLEAR     70  63  78 W5        30.11R
FAIRFIELD *    CLEAR     66  63  88 W6        30.12S
FORT MADISON * CLEAR     70  63  78 W3        30.13R
KEOKUK *       CLEAR     70  64  83 W5        30.11S
OSKALOOSA *      N/A     64  61  88 W5        30.12S
CENTERVILLE *  CLEAR     66  63  88 W7        30.16F
OTTUMWA        CLEAR     66  62  87 W6        30.11S
WASHINGTON *   CLEAR     64  63  94 SW6       30.12S
$$

ABBREVIATIONS USED IN REMARKS
   TC - TEMPERATURES IN CELSIUS
  WCI - WIND CHILL INDEX
   HX - HEAT INDEX
  VSB - VISIBILITY
$$




USA.gov is the U.S. government's official web portal to all federal, state and local government web resources and services.